SCP
0 0 0 0 0 0 0 0 0 0 0 0 0 0 0 0 0 0 0 0 0 0 0 0 0 0 0 0 0 0 0 0 0 0 0 0 0 0 0 0 0 0 0
0 0 0 0 0 0 0 0 0 0 0 0 0 0 0 0 0 0 0 0 0 0 0 0 0 0 0 0 0 0 0 0 0 0 0 0 0 0 0 0 0 0 0
0 0 0 0 0 0 0 0 0 0 0 0 0 0 0 0 0 0 0 0 0 0 0 0 0 0 0 0 0 0 0 0 0 0 0 0 0 0 0 0 0 0 0
0 0 0 0 0 0 0 0 0 0 0 0 0 0 0 0 0 0 0 0 0 0 0 0 0 0 0 0 0 0 0 0 0 0 0 0 0 0 0 0 0 0 0
0 0 0 0 0 0 0 0 0 0 0 0 0 0 0 0 0 0 0 0 0 0 0 0 0 0 0 0 0 0 0 0 0 0 0 0 0 0 0 0 0 0 0
0 0 0 0 0 0 0 0 0 0 0 0 0 0 0 0 0 0 0 0 0 0 0 0 0 0 0 0 0 0 0 0 0 0 0 0 0 0 0 0 0 0 0
0 0 0 0 0 0 0 0 0 0 0 0 0 0 0 0 0 0 0 0 0 0 0 0 0 0 0 0 0 0 0 0 0 0 0 0 0 0 0 0 0 0 0
0 0 0 0 0 0 0 0 0 0 0 0 0 0 0 0 0 0 0 0 0 0 0 0 0 0 0 0 0 0 0 0 0 0 0 0 0 0 0 0 0 0 0
0 0 0 0 0 0 0 0 0 0 0 0 0 0 0 0 0 0 0 0 0 0 0 0 0 0 0 0 0 0 0 0 0 0 0 0 0 0 0 0 0 0 0
0 0 0 0 0 0 0 0 0 0 0 0 0 0 0 0 0 0 0 0 0 0 0 0 0 0 0 0 0 0 0 0 0 0 0 0 0 0 0 0 0 0 0
0 0 0 0 0 0 0 0 0 0 0 0 0 0 0 0 0 0 0 0 0 0 0 0 0 0 0 0 0 0 0 0 0 0 0 0 0 0 0 0 0 0 0
0 0 0 0 0 0 0 0 0 0 0 0 0 0 0 0 0 0 0 0 0 0 0 0 0 0 0 0 0 0 0 0 0 0 0 0 0 0 0 0 0 0 0
0 0 0 0 0 0 0 0 0 0 0 0 0 0 0 0 0 0 0 0 0 0 0 0 0 0 0 0 0 0 0 0 0 0 0 0 0 0 0 0 0 0 0
0 0 -0 -0 0 0 0 0 0 0 0 0 0 0 0 0 0 0 0 0 0 0 0 0 0 0 0 0 0 0 0 0 0 0 0 0 0 0 0 0 0 0 0
0 0 -0 -0 0 0 0 0 0 0 0 0 0 0 0 0 0 0 0 0 0 0 0 0 0 0 0 0 0 0 0 0 0 0 0 0 0 0 0 0 0 0 0
0 0 0 0 0 0 0 0 0 0 0 0 0 0 0 0 0 0 0 0 0 0 0 0 0 0 0 0 0 0 0 0 0 0 0 0 0 0 0 0 0 0 0
0 0 0 0 0 0 0 0 0 0 0 0 0 0 0 0 0 0 0 0 0 0 0 0 0 0 0 0 0 0 0 0 0 0 0 0 0 0 0 0 0 0 0
0 0 0 0 0 0 0 0 0 0 0 0 0 0 0 0 0 0 0 0 0 0 0 0 0 0 0 0 0 0 0 0 0 0 0 0 0 0 0 0 0 0 0
0 0 0 0 0 0 0 0 0 0 0 0 0 0 0 0 0 0 0 0 0 0 0 0 0 0 0 0 0 0 0 0 0 0 0 0 0 0 0 0 0 0 0
0 0 0 0 0 0 0 0 0 0 0 0 0 0 0 0 0 0 0 0 0 0 0 0 0 0 0 0 0 0 0 0 0 0 0 0 0 0 0 0 0 0 0
0 0 0 0 0 0 0 0 0 0 0 0 0 0 0 0 0 0 0 0 0 0 0 0 0 0 0 0 0 0 0 0 0 0 0 0 0 0 0 0 0 0 0
0 0 0 0 0 0 0 0 0 0 0 0 0 0 0 0 0 0 0 0 0 0 0 0 0 0 0 0 0 0 0 0 0 0 0 0 0 0 0 0 0 0 0
0 0 0 0 0 0 0 0 0 0 0 0 0 0 0 0 0 0 0 0 0 0 0 0 0 0 0 0 0 0 0 0 0 0 0 0 0 0 0 0 0 0 0
0 0 0 0 0 0 0 0 0 0 0 0 0 0 0 0 0 0 0 0 0 0 0 0 0 0 0 0 0 0 0 0 0 0 0 0 0 0 0 0 0 0 0
0 0 0 0 0 0 0 0 0 0 0 0 0 0 0 0 0 0 0 0 0 0 0 0 0 0 0 0 0 0 0 0 0 0 0 0 0 0 0 0 0 0 0
0 0 0 0 0 0 0 0 0 0 0 0 0 0 0 0 0 0 0 0 0 0 0 0 0 0 0 0 0 0 0 0 0 0 0 0 0 0 0 0 0 0 0
Wind_Speed
6 8 9 8 8 8 8 7 7 7 7 6 6 5 5 4 4 4 3 3 3 3 3 3 3 4 3 3 3 3 4 4 4 4 4 4 4 4 5 4 3 5 8
8 9 10 8 8 8 7 7 6 6 6 6 5 5 4 4 3 2 2 2 1 1 2 2 2 3 2 2 2 3 3 4 4 4 3 0 3 3 3 4 6 6 6
9 9 10 8 7 7 7 7 6 6 6 5 5 4 4 3 3 2 2 2 1 1 1 1 1 2 2 2 3 3 3 3 3 3 4 2 3 4 2 3 4 4 5
9 8 8 9 7 7 7 7 6 6 6 5 4 4 4 3 3 3 2 2 3 3 3 3 2 2 3 3 3 3 3 3 3 5 5 1 1 6 1 1 2 3 4
8 8 9 7 7 7 7 6 6 6 5 5 4 4 4 4 3 3 4 4 4 4 4 4 4 3 3 3 4 4 3 3 3 7 3 2 1 4 1 0 1 2 3
9 8 9 7 7 7 6 6 6 6 5 5 5 4 4 4 4 4 4 5 5 5 5 5 5 5 5 4 4 4 4 4 7 4 3 3 1 3 1 1 1 1 2
8 7 9 7 7 6 6 6 6 6 5 5 4 4 4 5 5 5 5 5 5 5 5 5 6 6 6 5 5 4 4 5 7 4 4 3 1 2 2 2 2 1 1
8 7 8 8 6 6 6 5 5 5 5 4 4 4 4 5 5 5 5 5 5 5 5 5 5 6 5 5 6 5 5 7 6 5 4 3 3 1 3 3 2 2 2
7 6 6 7 8 6 5 4 4 4 4 4 5 5 5 5 5 5 6 6 6 5 5 5 5 5 5 6 6 6 5 4 7 5 5 3 3 2 3 3 3 3 3
6 5 4 4 4 4 5 5 3 3 4 4 4 5 4 2 1 2 4 4 6 6 6 6 5 5 5 5 6 5 5 6 7 5 5 1 2 3 3 3 4 4 4
6 5 5 4 3 2 1 4 1 2 2 1 1 2 4 4 3 2 5 6 6 6 5 5 5 5 6 5 6 5 6 6 4 4 4 2 2 4 4 4 4 5 5
7 6 4 4 3 2 0 0 1 1 1 3 4 4 3 4 4 5 1 1 3 4 5 3 4 6 7 5 5 7 5 6 5 4 2 1 4 5 5 5 5 5 5
6 5 4 4 3 1 1 1 1 1 1 2 3 3 3 3 3 3 3 1 2 4 4 2 5 4 4 3 4 4 4 4 4 3 1 2 4 5 5 5 5 5 6
5 5 4 4 3 2 1 1 1 1 2 2 2 4 4 3 4 4 3 4 4 3 4 5 4 4 5 5 5 5 5 4 3 2 1 1 3 4 4 5 6 6 6
5 5 5 4 2 1 0 1 2 1 2 2 2 3 4 4 4 4 3 3 4 4 4 4 5 4 5 5 5 5 5 5 4 4 2 3 2 3 3 4 5 6 6
7 6 5 5 3 2 2 2 1 1 0 2 2 3 5 4 4 4 5 4 4 4 4 5 5 4 4 4 4 4 5 4 4 4 4 4 4 2 1 2 3 5 6
7 6 6 5 4 3 1 1 1 1 1 1 2 3 4 4 5 5 5 5 5 5 5 5 5 5 4 4 4 4 3 4 4 4 4 3 3 5 3 3 3 3 4
7 6 6 5 4 3 2 1 0 1 1 1 2 3 5 5 6 5 5 5 5 5 4 4 4 4 4 3 3 3 2 2 3 3 3 2 2 2 5 5 3 2 3
7 7 7 7 5 4 3 2 1 1 1 1 2 3 4 6 6 5 4 5 6 5 4 5 4 4 4 3 3 2 2 2 1 3 3 2 2 2 2 5 4 3 3
7 7 7 7 6 5 3 2 1 1 1 1 1 2 4 5 6 5 4 5 6 4 4 4 4 3 3 3 3 1 2 2 2 1 2 2 2 2 2 2 3 5 5
8 8 8 8 8 6 4 2 2 1 1 1 1 2 3 4 5 5 5 5 5 5 5 5 4 4 2 2 2 2 2 3 2 2 1 1 2 1 2 2 2 2 4
9 10 10 9 8 7 3 2 1 1 2 1 1 1 2 3 4 4 5 5 5 4 5 5 4 4 2 1 2 2 3 3 3 2 1 1 1 1 2 2 2 3 3
9 10 8 8 8 7 6 3 2 1 2 2 2 1 2 3 3 4 5 6 5 5 4 5 5 4 3 2 1 2 2 1 2 2 2 1 1 0 1 1 2 3 4
8 8 8 8 8 7 7 5 4 2 2 2 2 1 2 2 3 3 5 5 5 4 5 5 4 4 4 2 1 1 2 2 1 2 2 2 2 1 1 1 1 2 2
5 6 7 7 7 7 6 5 5 4 3 2 2 2 3 1 2 3 4 4 4 4 5 5 4 4 3 3 2 2 2 2 2 1 2 2 2 1 1 0 0 0 1
4 5 6 7 7 7 7 7 6 5 4 3 3 3 3 1 2 2 3 3 4 4 4 4 4 4 3 3 2 2 2 2 2 1 1 2 2 1 1 1 0 0 0
Wind_Direction
132 126 120 125 121 117 115 113 110 107 105 103 103 101 99 98 100 99 95 91 88 74 61 46 38 40 38 39 39 42 39 36 34 34 36 39 48 52 46 36 15 71 59
131 125 121 124 122 118 114 110 106 102 98 95 96 98 94 87 86 82 68 66 68 60 50 37 23 13 8 12 17 23 25 23 19 18 8 51 90 53 43 37 23 50 55
128 125 129 122 119 115 111 106 98 93 88 83 79 76 76 71 61 53 32 6 355 349 337 343 357 341 334 340 349 354 5 1 1 354 287 255 113 94 49 51 63 60 58
124 122 113 115 114 109 105 100 94 85 77 72 67 58 51 44 33 17 2 353 344 333 324 324 324 319 314 317 320 323 333 334 336 299 265 358 58 88 54 53 82 73 62
124 118 110 117 111 106 101 95 88 79 71 64 55 47 41 30 18 5 355 345 336 329 323 319 316 310 304 304 306 309 317 320 311 272 307 329 356 78 353 260 120 101 76
126 120 112 116 108 102 94 86 76 70 64 58 52 41 32 18 2 352 344 340 334 324 319 316 316 309 300 300 297 302 306 307 274 275 296 291 303 85 311 265 201 146 102
126 121 117 115 108 102 94 85 75 68 60 53 44 34 25 13 1 351 344 337 331 325 316 313 309 305 300 295 291 290 294 294 277 280 270 273 34 51 288 257 222 196 153
125 125 120 121 108 99 93 86 78 69 59 48 37 27 18 9 0 353 348 337 327 321 318 313 303 296 295 294 287 280 282 285 265 269 266 266 71 317 274 256 234 209 189
132 132 126 130 133 124 99 81 76 59 46 38 25 11 7 1 354 347 338 336 326 318 315 314 306 295 287 284 281 272 266 272 278 266 264 259 96 272 261 248 236 216 203
147 145 135 127 117 122 126 108 71 49 38 30 23 17 0 299 261 304 294 347 329 319 316 315 309 302 288 277 276 269 259 249 248 255 255 177 116 261 252 245 233 217 201
166 167 161 158 143 131 91 104 141 121 64 295 147 86 289 314 345 288 20 1 335 330 325 320 315 309 290 251 247 256 248 245 233 255 256 65 284 260 244 238 226 213 202
177 179 177 182 168 178 150 134 282 294 32 331 354 355 343 355 346 330 82 306 322 316 288 287 293 268 257 247 205 214 241 241 238 234 214 105 270 258 243 229 215 207 199
174 175 188 197 188 214 220 300 330 329 339 323 351 343 332 335 326 325 325 272 282 281 290 276 263 275 278 276 278 255 255 262 248 241 175 117 272 263 246 221 208 205 202
189 185 189 197 197 218 286 312 289 310 329 344 352 341 341 344 329 344 323 335 321 315 315 298 289 283 280 267 256 256 244 244 249 250 149 117 279 265 252 222 204 201 204
197 198 193 203 215 205 249 285 283 327 329 2 353 334 343 335 338 336 324 330 318 322 308 297 288 290 286 276 263 262 261 253 253 249 190 158 259 271 260 230 202 194 202
203 201 185 200 201 215 221 253 327 337 335 331 357 347 340 340 337 331 326 329 328 322 320 302 296 291 277 275 269 255 252 259 252 246 247 185 186 215 232 208 189 196 204
204 196 186 197 196 210 245 331 336 314 337 350 1 336 338 342 333 334 331 334 336 327 315 304 302 290 276 267 257 257 253 255 255 242 243 237 190 167 159 154 159 190 207
206 198 178 187 190 182 178 208 220 318 348 340 347 340 339 343 341 341 337 340 336 326 320 313 301 294 282 276 269 257 246 235 248 242 227 214 220 185 150 134 144 171 197
209 203 185 183 182 173 166 179 215 269 305 321 337 347 344 349 346 351 347 339 337 332 330 322 330 310 297 289 265 240 246 245 239 237 218 200 182 188 166 146 162 169 174
205 203 189 175 182 164 169 188 189 241 266 298 329 354 351 344 351 350 340 349 346 337 337 334 328 311 302 291 274 239 224 223 215 220 234 203 180 177 182 183 183 173 172
197 198 191 184 177 172 175 205 227 242 255 254 314 348 333 341 347 353 341 354 344 343 339 338 329 314 310 311 271 218 197 204 192 174 216 214 174 172 186 193 209 196 172
195 197 195 190 182 182 183 197 225 298 289 316 274 260 306 331 343 343 346 342 350 339 344 344 338 324 332 331 300 263 201 178 179 159 178 183 166 179 199 204 194 197 206
198 201 198 190 184 183 175 176 190 206 236 221 233 258 301 317 330 335 344 342 344 341 353 343 340 338 328 327 332 306 291 212 148 148 142 140 127 172 214 210 199 201 196
201 200 200 189 190 183 181 198 219 248 279 303 300 292 268 278 307 321 335 337 339 346 347 348 359 335 326 333 341 319 320 329 266 161 144 129 118 126 180 196 200 207 192
191 192 197 188 188 185 197 197 222 237 264 275 271 273 280 288 294 304 323 329 337 343 351 350 350 345 339 340 339 334 314 295 284 254 152 142 129 100 86 58 213 207 186
177 182 188 187 190 189 200 208 221 235 242 252 257 277 275 274 276 284 302 317 329 343 347 345 345 351 346 346 331 337 332 324 337 307 177 147 136 115 101 64 237 106 101